Year,Month,Day,Hour,Minute,Value (Times are PST for temperature in C)
2007,07,27,06,43,9.70
2007,07,27,06,44,9.70
2007,07,27,06,45,9.70
2007,07,27,06,46,9.70
2007,07,27,06,47,9.80
2007,07,27,06,48,9.80
2007,07,27,06,49,9.80
2007,07,27,06,50,9.80
2007,07,27,06,51,9.80
2007,07,27,06,52,9.80
2007,07,27,06,53,9.90
2007,07,27,06,54,9.90
2007,07,27,06,55,9.90
2007,07,27,06,56,9.90
2007,07,27,06,57,9.90
2007,07,27,06,58,10.00
2007,07,27,06,59,10.00
2007,07,27,07,00,10.00
2007,07,27,07,01,10.10
2007,07,27,07,02,10.10
2007,07,27,07,03,10.10
2007,07,27,07,04,10.10
2007,07,27,07,05,10.10
2007,07,27,07,06,10.10
2007,07,27,07,07,10.20
2007,07,27,07,08,10.20
2007,07,27,07,09,10.20
2007,07,27,07,10,10.20
2007,07,27,07,11,10.30
2007,07,27,07,12,10.30
2007,07,27,07,13,10.40
2007,07,27,07,14,10.40
2007,07,27,07,15,10.50
2007,07,27,07,16,10.60
2007,07,27,07,17,10.60
2007,07,27,07,18,10.70
2007,07,27,07,19,10.80
2007,07,27,07,20,10.90
2007,07,27,07,21,11.00
2007,07,27,07,22,11.20
2007,07,27,07,23,11.30
2007,07,27,07,24,11.40
2007,07,27,07,25,11.50
2007,07,27,07,26,11.70
2007,07,27,07,27,11.80
2007,07,27,07,28,11.90
2007,07,27,07,29,12.10
2007,07,27,07,30,12.20
2007,07,27,07,31,12.30
2007,07,27,07,32,12.50
2007,07,27,07,33,12.60
2007,07,27,07,34,12.70
2007,07,27,07,35,12.80
2007,07,27,07,36,13.00
2007,07,27,07,37,13.10
2007,07,27,07,38,13.10
2007,07,27,07,39,13.30
2007,07,27,07,40,13.30
2007,07,27,07,41,13.40
2007,07,27,07,42,13.50
2007,07,27,07,43,13.60
2007,07,27,07,44,13.70
2007,07,27,07,45,13.70
2007,07,27,07,46,13.80
2007,07,27,07,47,13.80
2007,07,27,07,48,13.90
2007,07,27,07,49,13.90
2007,07,27,07,50,14.00
2007,07,27,07,51,14.10
2007,07,27,07,52,14.10
2007,07,27,07,53,14.20
2007,07,27,07,54,14.20
2007,07,27,07,55,14.20
2007,07,27,07,56,14.30
2007,07,27,07,57,14.30
2007,07,27,07,58,14.40
2007,07,27,07,59,14.40
2007,07,27,08,00,14.50
2007,07,27,08,01,14.60
2007,07,27,08,02,14.70
2007,07,27,08,03,14.70
2007,07,27,08,04,14.80
2007,07,27,08,05,14.80
2007,07,27,08,06,15.00
2007,07,27,08,07,15.00
2007,07,27,08,08,15.00
2007,07,27,08,09,15.00
2007,07,27,08,10,15.10
2007,07,27,08,11,15.10
2007,07,27,08,12,15.10
2007,07,27,08,13,15.20
2007,07,27,08,14,15.20
2007,07,27,08,15,15.30
2007,07,27,08,16,15.30
2007,07,27,08,17,15.40
2007,07,27,08,18,15.40
2007,07,27,08,19,15.50
2007,07,27,08,20,15.50
2007,07,27,08,21,15.50
2007,07,27,08,22,15.60
2007,07,27,08,23,15.60
2007,07,27,08,24,15.70
2007,07,27,08,25,15.70
2007,07,27,08,26,15.70
2007,07,27,08,27,15.70
2007,07,27,08,28,15.80
2007,07,27,08,29,15.80
2007,07,27,08,30,15.90
2007,07,27,08,31,15.90
2007,07,27,08,32,16.00
2007,07,27,08,33,16.10
2007,07,27,08,34,16.10
2007,07,27,08,35,16.10
2007,07,27,08,36,16.10
2007,07,27,08,37,16.20
2007,07,27,08,38,16.30
2007,07,27,08,39,16.30
2007,07,27,08,40,16.30
2007,07,27,08,41,16.30
2007,07,27,08,42,16.40
2007,07,27,08,43,16.40
2007,07,27,08,44,16.50
2007,07,27,08,45,16.60
2007,07,27,08,46,16.60
2007,07,27,08,47,16.70
2007,07,27,08,48,16.70
2007,07,27,08,49,16.70
2007,07,27,08,50,16.70
2007,07,27,08,51,16.70
2007,07,27,08,52,16.70
2007,07,27,08,53,16.70
2007,07,27,08,54,16.70
2007,07,27,08,55,16.70
2007,07,27,08,56,16.70
2007,07,27,08,57,16.70
2007,07,27,08,58,16.70
2007,07,27,08,59,16.80
2007,07,27,09,00,16.80
2007,07,27,09,01,16.80
2007,07,27,09,02,16.80
2007,07,27,09,03,16.80
2007,07,27,09,04,16.80
2007,07,27,09,05,16.80
2007,07,27,09,06,16.80
2007,07,27,09,07,16.90
2007,07,27,09,08,16.90
2007,07,27,09,09,16.90
2007,07,27,09,10,16.90
2007,07,27,09,11,17.00
2007,07,27,09,12,17.10
2007,07,27,09,13,17.10
2007,07,27,09,14,17.10
2007,07,27,09,15,17.20
2007,07,27,09,16,17.30
2007,07,27,09,17,17.30
2007,07,27,09,18,17.30
2007,07,27,09,19,17.40
2007,07,27,09,20,17.40
2007,07,27,09,21,17.40
2007,07,27,09,22,17.50
2007,07,27,09,23,17.60
2007,07,27,09,24,17.70
2007,07,27,09,25,17.70
2007,07,27,09,26,17.70
2007,07,27,09,27,17.70
2007,07,27,09,28,17.70
2007,07,27,09,29,17.80
2007,07,27,09,30,17.80
2007,07,27,09,31,17.80
2007,07,27,09,32,17.90
2007,07,27,09,33,17.90
2007,07,27,09,34,17.90
2007,07,27,09,35,18.00
2007,07,27,09,36,18.00
2007,07,27,09,37,18.00
2007,07,27,09,38,18.00
2007,07,27,09,39,18.00
2007,07,27,09,40,18.10
2007,07,27,09,41,18.10
2007,07,27,09,42,18.10
2007,07,27,09,43,18.20
2007,07,27,09,44,18.10
2007,07,27,09,45,18.10
2007,07,27,09,46,18.10
2007,07,27,09,47,18.10
2007,07,27,09,48,18.10
2007,07,27,09,49,18.10
2007,07,27,09,50,18.10
2007,07,27,09,51,18.20
2007,07,27,09,52,18.20
2007,07,27,09,53,18.20
2007,07,27,09,54,18.20
2007,07,27,09,55,18.20
2007,07,27,09,56,18.30
2007,07,27,09,57,18.30
2007,07,27,09,58,18.30
2007,07,27,09,59,18.30
2007,07,27,10,00,18.40
2007,07,27,10,01,18.40
2007,07,27,10,02,18.50
2007,07,27,10,03,18.60
2007,07,27,10,04,18.60
2007,07,27,10,05,18.70
2007,07,27,10,06,18.60
2007,07,27,10,07,18.60
2007,07,27,10,08,18.60
2007,07,27,10,09,18.50
2007,07,27,10,10,18.50
2007,07,27,10,11,18.60
2007,07,27,10,12,18.50
2007,07,27,10,13,18.50
2007,07,27,10,14,18.40
2007,07,27,10,15,18.40
2007,07,27,10,16,18.40
2007,07,27,10,17,18.40
2007,07,27,10,18,18.50
2007,07,27,10,19,18.40
2007,07,27,10,20,18.40
2007,07,27,10,21,18.40
2007,07,27,10,22,18.50
2007,07,27,10,23,18.50
2007,07,27,10,24,18.60
2007,07,27,10,25,18.60
2007,07,27,10,26,18.70
2007,07,27,10,27,18.70
2007,07,27,10,28,18.70
2007,07,27,10,29,18.70
2007,07,27,10,30,18.70
2007,07,27,10,31,18.80
2007,07,27,10,32,18.80
2007,07,27,10,33,18.80
2007,07,27,10,34,18.70
2007,07,27,10,35,18.70
2007,07,27,10,36,18.80
2007,07,27,10,37,18.80
2007,07,27,10,38,18.90
2007,07,27,10,39,18.90
2007,07,27,10,40,18.90
2007,07,27,10,41,19.00
2007,07,27,10,42,18.90
2007,07,27,10,43,18.80
2007,07,27,10,44,18.70
2007,07,27,10,45,18.70
2007,07,27,10,46,18.70
2007,07,27,10,47,18.60
2007,07,27,10,48,18.60
2007,07,27,10,49,18.60
2007,07,27,10,50,18.60
2007,07,27,10,51,18.60
2007,07,27,10,52,18.60
2007,07,27,10,53,18.70
2007,07,27,10,54,18.70
2007,07,27,10,55,18.80
2007,07,27,10,56,18.80
2007,07,27,10,57,18.80
2007,07,27,10,58,18.80
2007,07,27,10,59,18.80
2007,07,27,11,00,18.80
2007,07,27,11,01,18.80
2007,07,27,11,02,18.80
2007,07,27,11,03,18.70
2007,07,27,11,04,18.70
2007,07,27,11,05,18.70
2007,07,27,11,06,18.60
2007,07,27,11,07,18.70
2007,07,27,11,08,18.80
2007,07,27,11,09,18.80
2007,07,27,11,10,18.90
2007,07,27,11,11,18.90
2007,07,27,11,12,18.90
2007,07,27,11,13,19.00
2007,07,27,11,14,19.00
2007,07,27,11,15,19.10
2007,07,27,11,16,19.20
2007,07,27,11,17,19.10
2007,07,27,11,18,19.20
2007,07,27,11,19,19.20
2007,07,27,11,20,19.20
2007,07,27,11,21,19.20
2007,07,27,11,22,19.20
2007,07,27,11,23,19.20
2007,07,27,11,24,19.30
2007,07,27,11,25,19.30
2007,07,27,11,26,19.40
2007,07,27,11,27,19.40
2007,07,27,11,28,19.40
2007,07,27,11,29,19.50
2007,07,27,11,30,19.50
2007,07,27,11,31,19.50
2007,07,27,11,32,19.40
2007,07,27,11,33,19.40
2007,07,27,11,34,19.50
2007,07,27,11,35,19.50
2007,07,27,11,36,19.60
2007,07,27,11,37,19.70
2007,07,27,11,38,19.80
2007,07,27,11,39,19.90
2007,07,27,11,40,20.00
2007,07,27,11,41,20.10
2007,07,27,11,42,20.10
2007,07,27,11,43,20.10
2007,07,27,11,44,20.10
2007,07,27,11,45,20.00
2007,07,27,11,46,19.80
2007,07,27,11,47,19.70
2007,07,27,11,48,19.70
2007,07,27,11,49,19.60
2007,07,27,11,50,19.60
2007,07,27,11,51,19.60
2007,07,27,11,52,19.70
2007,07,27,11,53,19.80
2007,07,27,11,54,19.90
2007,07,27,11,55,20.00
2007,07,27,11,56,20.00
2007,07,27,11,57,20.10
2007,07,27,11,58,20.10
2007,07,27,11,59,20.10
2007,07,27,12,00,20.20
2007,07,27,12,01,20.20
2007,07,27,12,02,20.20
2007,07,27,12,03,20.30
2007,07,27,12,04,20.20
2007,07,27,12,05,20.10
2007,07,27,12,06,20.10
2007,07,27,12,07,20.20
2007,07,27,12,08,20.20
2007,07,27,12,09,20.30
2007,07,27,12,10,20.30
2007,07,27,12,11,20.20
2007,07,27,12,12,20.10
2007,07,27,12,13,20.00
2007,07,27,12,14,19.90
2007,07,27,12,15,19.90
2007,07,27,12,16,19.90
2007,07,27,12,17,19.90
2007,07,27,12,18,20.00
2007,07,27,12,19,20.00
2007,07,27,12,20,20.10
2007,07,27,12,21,20.20
2007,07,27,12,22,20.10
2007,07,27,12,23,20.00
2007,07,27,12,24,19.90
2007,07,27,12,25,19.80
2007,07,27,12,26,19.70
2007,07,27,12,27,19.70
2007,07,27,12,28,19.70
2007,07,27,12,29,19.70
2007,07,27,12,30,19.80
2007,07,27,12,31,19.90
2007,07,27,12,32,19.90
2007,07,27,12,33,19.90
2007,07,27,12,34,20.00
2007,07,27,12,35,20.00
2007,07,27,12,36,19.90
2007,07,27,12,37,20.00
2007,07,27,12,38,20.00
2007,07,27,12,39,20.20
2007,07,27,12,40,20.20
2007,07,27,12,41,20.10
2007,07,27,12,42,20.00
2007,07,27,12,43,19.80
2007,07,27,12,44,19.70
2007,07,27,12,45,19.70
2007,07,27,12,46,19.70
2007,07,27,12,47,19.70
2007,07,27,12,48,19.70
2007,07,27,12,49,19.70
2007,07,27,12,50,19.80
2007,07,27,12,51,19.90
2007,07,27,12,52,19.90
2007,07,27,12,53,19.90
2007,07,27,12,54,19.90
2007,07,27,12,55,20.00
2007,07,27,12,56,19.90
2007,07,27,12,57,19.90
2007,07,27,12,58,19.80
2007,07,27,12,59,19.80
2007,07,27,13,00,19.80
2007,07,27,13,01,19.90
2007,07,27,13,02,19.90
2007,07,27,13,03,19.80
2007,07,27,13,04,19.80
2007,07,27,13,05,19.90
2007,07,27,13,06,19.90
2007,07,27,13,07,20.00
2007,07,27,13,08,20.00
2007,07,27,13,09,20.20
2007,07,27,13,10,20.20
2007,07,27,13,11,20.30
2007,07,27,13,12,20.30
2007,07,27,13,13,20.30
2007,07,27,13,14,20.30
2007,07,27,13,15,20.20
2007,07,27,13,16,20.20
2007,07,27,13,17,20.30
2007,07,27,13,18,20.30
2007,07,27,13,19,20.40
2007,07,27,13,20,20.40
2007,07,27,13,21,20.50
2007,07,27,13,22,20.50
2007,07,27,13,23,20.50
2007,07,27,13,24,20.50
2007,07,27,13,25,20.40
2007,07,27,13,26,20.40
2007,07,27,13,27,20.40
2007,07,27,13,28,20.40
2007,07,27,13,29,20.50
2007,07,27,13,30,20.60
2007,07,27,13,31,20.60
2007,07,27,13,32,20.60
2007,07,27,13,33,20.70
2007,07,27,13,34,20.80
2007,07,27,13,35,20.80
2007,07,27,13,36,20.80
2007,07,27,13,37,20.80
2007,07,27,13,38,20.80
2007,07,27,13,39,20.70
2007,07,27,13,40,20.70
2007,07,27,13,41,20.80
2007,07,27,13,42,20.80
2007,07,27,13,43,20.80
2007,07,27,13,44,20.80
2007,07,27,13,45,20.80
2007,07,27,13,46,20.70
2007,07,27,13,47,20.60
2007,07,27,13,48,20.50
2007,07,27,13,49,20.50
2007,07,27,13,50,20.50
2007,07,27,13,51,20.50
2007,07,27,13,52,20.60
2007,07,27,13,53,20.70
2007,07,27,13,54,20.70
2007,07,27,13,55,20.80
2007,07,27,13,56,20.80
2007,07,27,13,57,20.80
2007,07,27,13,58,20.80
2007,07,27,13,59,20.80
2007,07,27,14,00,20.80
2007,07,27,14,01,20.80
2007,07,27,14,02,20.90
2007,07,27,14,03,20.90
2007,07,27,14,04,20.90
2007,07,27,14,05,21.00
2007,07,27,14,06,21.00
2007,07,27,14,07,21.00
2007,07,27,14,08,21.00
2007,07,27,14,09,21.00
2007,07,27,14,10,21.00
2007,07,27,14,11,21.10
2007,07,27,14,12,21.10
2007,07,27,14,13,21.20
2007,07,27,14,14,21.30
2007,07,27,14,15,21.20
2007,07,27,14,16,21.20
2007,07,27,14,17,21.10
2007,07,27,14,18,21.20
2007,07,27,14,19,21.20
2007,07,27,14,20,21.20
2007,07,27,14,21,21.30
2007,07,27,14,22,21.30
2007,07,27,14,23,21.40
2007,07,27,14,24,21.40
2007,07,27,14,25,21.50
2007,07,27,14,26,21.50
2007,07,27,14,27,21.60
2007,07,27,14,28,21.60
2007,07,27,14,29,21.70
2007,07,27,14,30,21.70
2007,07,27,14,31,21.70
2007,07,27,14,32,21.70
2007,07,27,14,33,21.70
2007,07,27,14,34,21.70
2007,07,27,14,35,21.70
2007,07,27,14,36,21.70
2007,07,27,14,37,21.80
2007,07,27,14,38,21.80
2007,07,27,14,39,21.80
2007,07,27,14,40,21.90
2007,07,27,14,41,22.10
2007,07,27,14,42,22.10
2007,07,27,14,43,22.20
2007,07,27,14,44,22.20
2007,07,27,14,45,22.10
2007,07,27,14,46,22.10
2007,07,27,14,47,22.10
2007,07,27,14,48,22.10
2007,07,27,14,49,22.10
2007,07,27,14,50,22.10
2007,07,27,14,51,22.20
2007,07,27,14,52,22.20
2007,07,27,14,53,22.30
2007,07,27,14,54,22.40
2007,07,27,14,55,22.50
2007,07,27,14,56,22.50
2007,07,27,14,57,22.70
2007,07,27,14,58,22.80
2007,07,27,14,59,22.80
2007,07,27,15,00,22.90
2007,07,27,15,01,23.00
2007,07,27,15,02,23.10
2007,07,27,15,03,23.10
2007,07,27,15,04,23.20
2007,07,27,15,05,23.30
2007,07,27,15,06,23.30
2007,07,27,15,07,23.30
2007,07,27,15,08,23.40
2007,07,27,15,09,23.30
2007,07,27,15,10,23.40
2007,07,27,15,11,23.40
2007,07,27,15,12,23.40
2007,07,27,15,13,23.30
2007,07,27,15,14,23.30
2007,07,27,15,15,23.40
2007,07,27,15,16,23.40
2007,07,27,15,17,23.50
2007,07,27,15,18,23.60
2007,07,27,15,19,23.70
2007,07,27,15,20,23.70
2007,07,27,15,21,23.80
2007,07,27,15,22,23.90
2007,07,27,15,23,24.00
2007,07,27,15,24,24.10
2007,07,27,15,25,24.10
2007,07,27,15,26,24.00
2007,07,27,15,27,24.10
2007,07,27,15,28,24.00
2007,07,27,15,29,23.90
2007,07,27,15,30,24.00
2007,07,27,15,31,24.00
2007,07,27,15,32,24.10
2007,07,27,15,33,24.10
2007,07,27,15,34,24.20
2007,07,27,15,35,24.20
2007,07,27,15,36,24.20
2007,07,27,15,37,24.20
2007,07,27,15,38,24.20
2007,07,27,15,39,24.20
2007,07,27,15,40,24.20
2007,07,27,15,41,24.20
2007,07,27,15,42,24.20
2007,07,27,15,43,24.20
2007,07,27,15,44,24.30
2007,07,27,15,45,24.30
2007,07,27,15,46,24.30
2007,07,27,15,47,24.40
2007,07,27,15,48,24.40
2007,07,27,15,49,24.40
2007,07,27,15,50,24.40
2007,07,27,15,51,24.40
2007,07,27,15,52,24.50
2007,07,27,15,53,24.60
2007,07,27,15,54,24.60
2007,07,27,15,55,24.60
2007,07,27,15,56,24.50
2007,07,27,15,57,24.50
2007,07,27,15,58,24.50
2007,07,27,15,59,24.60
2007,07,27,16,00,24.60
2007,07,27,16,01,24.70
2007,07,27,16,02,24.80
2007,07,27,16,03,24.80
2007,07,27,16,04,24.80
2007,07,27,16,05,24.80
2007,07,27,16,06,24.70
2007,07,27,16,07,24.70
2007,07,27,16,08,24.60
2007,07,27,16,09,24.60
2007,07,27,16,10,24.60
2007,07,27,16,11,24.70
2007,07,27,16,12,24.60
2007,07,27,16,13,24.60
2007,07,27,16,14,24.60
2007,07,27,16,15,24.50
2007,07,27,16,16,24.40
2007,07,27,16,17,24.30
2007,07,27,16,18,24.30
2007,07,27,16,19,24.30
2007,07,27,16,20,24.30
2007,07,27,16,21,24.30
2007,07,27,16,22,24.30
2007,07,27,16,23,24.20
2007,07,27,16,24,24.10
2007,07,27,16,25,24.10
2007,07,27,16,26,24.00
2007,07,27,16,27,23.90
2007,07,27,16,28,23.90
2007,07,27,16,29,23.80
2007,07,27,16,30,23.70
2007,07,27,16,31,23.70
2007,07,27,16,32,23.70
2007,07,27,16,33,23.60
2007,07,27,16,34,23.60
2007,07,27,16,35,23.50
2007,07,27,16,36,23.50
2007,07,27,16,37,23.50
2007,07,27,16,38,23.50
2007,07,27,16,39,23.50
2007,07,27,16,40,23.50
2007,07,27,16,41,23.40
2007,07,27,16,42,23.40
2007,07,27,16,43,23.40
2007,07,27,16,44,23.40
2007,07,27,16,45,23.40
2007,07,27,16,46,23.40
2007,07,27,16,47,23.40
2007,07,27,16,48,23.40
2007,07,27,16,49,23.40
2007,07,27,16,50,23.40
2007,07,27,16,51,23.40
2007,07,27,16,52,23.50
2007,07,27,16,53,23.50
2007,07,27,16,54,23.50
2007,07,27,16,55,23.60
2007,07,27,16,56,23.60
2007,07,27,16,57,23.50
2007,07,27,16,58,23.50
2007,07,27,16,59,23.40
2007,07,27,17,00,23.40
2007,07,27,17,01,23.40
2007,07,27,17,02,23.40
2007,07,27,17,03,23.30
2007,07,27,17,04,23.30
2007,07,27,17,05,23.30
2007,07,27,17,06,23.30
2007,07,27,17,07,23.30
2007,07,27,17,08,23.30
2007,07,27,17,09,23.30
2007,07,27,17,10,23.40
2007,07,27,17,11,23.40
2007,07,27,17,12,23.40
2007,07,27,17,13,23.40
2007,07,27,17,14,23.40
2007,07,27,17,15,23.40
2007,07,27,17,16,23.40
2007,07,27,17,17,23.50
2007,07,27,17,18,23.50
2007,07,27,17,19,23.60
2007,07,27,17,20,23.60
2007,07,27,17,21,23.60
2007,07,27,17,22,23.60
2007,07,27,17,23,23.60
2007,07,27,17,24,23.70
2007,07,27,17,25,23.70
2007,07,27,17,26,23.70
2007,07,27,17,27,23.70
2007,07,27,17,28,23.70
2007,07,27,17,29,23.70
2007,07,27,17,30,23.70
2007,07,27,17,31,23.70
2007,07,27,17,32,23.80
2007,07,27,17,33,23.80
2007,07,27,17,34,23.80
2007,07,27,17,35,23.90
2007,07,27,17,36,23.90
2007,07,27,17,37,24.00
2007,07,27,17,38,24.10
2007,07,27,17,39,24.20
2007,07,27,17,40,24.30
2007,07,27,17,41,24.30
2007,07,27,17,42,24.40
2007,07,27,17,43,24.50
2007,07,27,17,44,24.50
2007,07,27,17,45,24.60
2007,07,27,17,46,24.70
2007,07,27,17,47,24.80
2007,07,27,17,48,24.80
2007,07,27,17,49,24.90
2007,07,27,17,50,24.90
2007,07,27,17,51,24.90
2007,07,27,17,52,25.10
2007,07,27,17,53,25.10
2007,07,27,17,54,25.10
2007,07,27,17,55,25.10
2007,07,27,17,56,25.00
2007,07,27,17,57,25.00
2007,07,27,17,58,25.00
2007,07,27,17,59,25.00
2007,07,27,18,00,24.90
2007,07,27,18,01,24.90
2007,07,27,18,02,24.90
2007,07,27,18,03,24.90
2007,07,27,18,04,25.00
2007,07,27,18,05,25.00
2007,07,27,18,06,25.10
2007,07,27,18,07,25.20
2007,07,27,18,08,25.20
2007,07,27,18,09,25.20
2007,07,27,18,10,25.20
2007,07,27,18,11,25.20
2007,07,27,18,12,25.20
2007,07,27,18,13,25.30
2007,07,27,18,14,25.30
2007,07,27,18,15,25.40
2007,07,27,18,16,25.50
2007,07,27,18,17,25.50
2007,07,27,18,18,25.50
2007,07,27,18,19,25.30
2007,07,27,18,20,25.20
2007,07,27,18,21,25.10
2007,07,27,18,22,25.20
2007,07,27,18,23,25.20
2007,07,27,18,24,25.20
2007,07,27,18,25,25.20
2007,07,27,18,26,25.30
2007,07,27,18,27,25.30
2007,07,27,18,28,25.20
2007,07,27,18,29,25.20
2007,07,27,18,30,25.20
2007,07,27,18,31,25.30
2007,07,27,18,32,25.40
2007,07,27,18,33,25.40
2007,07,27,18,34,25.50
2007,07,27,18,35,25.60
2007,07,27,18,36,25.70
2007,07,27,18,37,25.70
2007,07,27,18,38,25.70
2007,07,27,18,39,25.60
2007,07,27,18,40,25.60
2007,07,27,18,41,25.60
2007,07,27,18,42,25.50
2007,07,27,18,43,25.50
2007,07,27,18,44,25.40
2007,07,27,18,45,25.30
2007,07,27,18,46,25.20
2007,07,27,18,47,25.20
2007,07,27,18,48,25.10
2007,07,27,18,49,25.10
2007,07,27,18,50,25.00
2007,07,27,18,51,24.90
2007,07,27,18,52,24.90
2007,07,27,18,53,24.90
2007,07,27,18,54,24.80
2007,07,27,18,55,24.80
2007,07,27,18,56,24.80
2007,07,27,18,57,24.80
2007,07,27,18,58,24.90
2007,07,27,18,59,24.90
2007,07,27,19,00,24.90
2007,07,27,19,01,24.90
2007,07,27,19,02,24.90
2007,07,27,19,03,24.90
2007,07,27,19,04,24.90
2007,07,27,19,05,24.90
2007,07,27,19,06,24.90
2007,07,27,19,07,24.90
2007,07,27,19,08,24.90
2007,07,27,19,09,24.90
2007,07,27,19,10,24.90
2007,07,27,19,11,24.90
2007,07,27,19,12,24.80
2007,07,27,19,13,24.80
2007,07,27,19,14,24.80
2007,07,27,19,15,24.80
2007,07,27,19,16,24.70
2007,07,27,19,17,24.70
2007,07,27,19,18,24.60
2007,07,27,19,19,24.60
2007,07,27,19,20,24.60
2007,07,27,19,21,24.60
2007,07,27,19,22,24.60
2007,07,27,19,23,24.60
2007,07,27,19,24,24.50
2007,07,27,19,25,24.40
2007,07,27,19,26,24.40
2007,07,27,19,27,24.30
2007,07,27,19,28,23.90
2007,07,27,19,29,23.60
2007,07,27,19,30,23.30
2007,07,27,19,31,22.90
2007,07,27,19,32,22.60
2007,07,27,19,33,22.10
2007,07,27,19,34,21.80
2007,07,27,19,35,21.60
2007,07,27,19,36,21.30
2007,07,27,19,37,21.10
2007,07,27,19,38,20.90
2007,07,27,19,39,20.80
2007,07,27,19,40,20.70
2007,07,27,19,41,20.50
2007,07,27,19,42,20.40
2007,07,27,19,43,20.30
2007,07,27,19,44,20.20
2007,07,27,19,45,20.10
2007,07,27,19,46,20.10
2007,07,27,19,47,20.00
2007,07,27,19,48,20.00
2007,07,27,19,49,20.00
2007,07,27,19,50,20.00
2007,07,27,19,51,20.00
2007,07,27,19,52,20.00
2007,07,27,19,53,20.00
2007,07,27,19,54,20.00
2007,07,27,19,55,20.00
2007,07,27,19,56,20.00
2007,07,27,19,57,19.90
2007,07,27,19,58,19.90
2007,07,27,19,59,19.90
2007,07,27,20,00,19.90
2007,07,27,20,01,19.90
2007,07,27,20,02,19.90
2007,07,27,20,03,19.90
2007,07,27,20,04,19.90
2007,07,27,20,05,19.90
2007,07,27,20,06,19.90
2007,07,27,20,07,19.90
2007,07,27,20,08,19.90
2007,07,27,20,09,19.90
2007,07,27,20,10,19.90
2007,07,27,20,11,19.90
2007,07,27,20,12,19.90
2007,07,27,20,13,20.00
2007,07,27,20,14,20.00
2007,07,27,20,15,20.10
2007,07,27,20,16,20.10
2007,07,27,20,17,20.10
2007,07,27,20,18,20.10
2007,07,27,20,19,20.10
2007,07,27,20,20,20.20
2007,07,27,20,21,20.20
2007,07,27,20,22,20.20
2007,07,27,20,23,20.20
2007,07,27,20,24,20.20
2007,07,27,20,25,20.20
2007,07,27,20,26,20.20
2007,07,27,20,27,20.20
2007,07,27,20,28,20.20
2007,07,27,20,29,20.20
2007,07,27,20,30,20.20
2007,07,27,20,31,20.10
2007,07,27,20,32,20.10
2007,07,27,20,33,20.10
2007,07,27,20,34,20.10
2007,07,27,20,35,20.10
2007,07,27,20,36,20.10
2007,07,27,20,37,20.10
2007,07,27,20,38,20.10
2007,07,27,20,39,20.10
2007,07,27,20,40,20.10
2007,07,27,20,41,20.10
2007,07,27,20,42,20.00
2007,07,27,20,43,20.00
2007,07,27,20,44,19.90
2007,07,27,20,45,19.90
2007,07,27,20,46,19.90
2007,07,27,20,47,19.90
2007,07,27,20,48,19.80
2007,07,27,20,49,19.80
2007,07,27,20,50,19.80
2007,07,27,20,51,19.80
2007,07,27,20,52,19.80
2007,07,27,20,53,19.70
2007,07,27,20,54,19.70
2007,07,27,20,55,19.60
2007,07,27,20,56,19.50
2007,07,27,20,57,19.40
2007,07,27,20,58,19.40
2007,07,27,20,59,19.40
2007,07,27,21,00,19.30
2007,07,27,21,01,19.30
2007,07,27,21,02,19.30
2007,07,27,21,03,19.30
2007,07,27,21,04,19.20
2007,07,27,21,05,19.20
2007,07,27,21,06,19.20
2007,07,27,21,07,19.10
2007,07,27,21,08,19.10
2007,07,27,21,09,19.10
2007,07,27,21,10,19.00
2007,07,27,21,11,19.00
2007,07,27,21,12,19.00
2007,07,27,21,13,19.00
2007,07,27,21,14,18.90
2007,07,27,21,15,18.90
2007,07,27,21,16,18.90
2007,07,27,21,17,18.90
2007,07,27,21,18,18.80
2007,07,27,21,19,18.80
2007,07,27,21,20,18.80
2007,07,27,21,21,18.80
2007,07,27,21,22,18.80
2007,07,27,21,23,18.80
2007,07,27,21,24,18.80
2007,07,27,21,25,18.80
2007,07,27,21,26,18.70
2007,07,27,21,27,18.70
2007,07,27,21,28,18.70
2007,07,27,21,29,18.70
2007,07,27,21,30,18.70
2007,07,27,21,31,18.70
2007,07,27,21,32,18.60
2007,07,27,21,33,18.60
2007,07,27,21,34,18.60
2007,07,27,21,35,18.60
2007,07,27,21,36,18.60
2007,07,27,21,37,18.70
2007,07,27,21,38,18.70
2007,07,27,21,39,18.70
2007,07,27,21,40,18.70
2007,07,27,21,41,18.60
2007,07,27,21,42,18.60
2007,07,27,21,43,18.60
2007,07,27,21,44,18.60
2007,07,27,21,45,18.50
2007,07,27,21,46,18.50
2007,07,27,21,47,18.40
2007,07,27,21,48,18.40
2007,07,27,21,49,18.40
2007,07,27,21,50,18.40
2007,07,27,21,51,18.40
2007,07,27,21,52,18.40
2007,07,27,21,53,18.40
2007,07,27,21,54,18.40
2007,07,27,21,55,18.30
2007,07,27,21,56,18.30
2007,07,27,21,57,18.40
2007,07,27,21,58,18.40
2007,07,27,21,59,18.30
2007,07,27,22,00,18.30
2007,07,27,22,01,18.30
2007,07,27,22,02,18.30
2007,07,27,22,03,18.30
2007,07,27,22,04,18.30
2007,07,27,22,05,18.30
2007,07,27,22,06,18.30
2007,07,27,22,07,18.30
2007,07,27,22,08,18.30
2007,07,27,22,09,18.30
2007,07,27,22,10,18.30
2007,07,27,22,11,18.30
2007,07,27,22,12,18.30
2007,07,27,22,13,18.30
2007,07,27,22,14,18.30
2007,07,27,22,15,18.30
2007,07,27,22,16,18.30
2007,07,27,22,17,18.30
